contact:dominique.lefevre@mio.osupytheas.fr, maurice.libes@osupytheas.fr, didier.mallarino@osupytheas.fr
Project:EMSO http://www.emso-fr.org/EMSO-France
Depth: 2436.0 m
Title:EMSO Ligure Ouest : Data MII capteur AQUADOPP
Date,Latitude,Longitude,X_East,Y_North,Z_Up,Amplitude_X,Amplitude_Y,Amplitude_Z,Batterie,SoundSpeed,Heading,Pitch,Roll,Pressure,TIS,Speed,Direction
, degrees North, degrees East, m.s-1, m.s-1,m.s-1, 1, 1, 1, Volt, m.s-1, degree, degree, degree, dbar, degree_C, m.s-1, degree
2022-01-02T00:04:03,42.805,6.029,0.013,-0.024,0.0,102.0,101.0,101.0,13.4,1505.2,331.0,-0.8,1.8,2470.654,13.28,0.027,151.6
2022-01-02T00:07:03,42.805,6.029,0.011,-0.048,-0.018,101.0,102.0,101.0,13.3,1505.2,324.6,-0.7,1.8,2470.603,13.28,0.049,167.1
2022-01-02T00:10:03,42.805,6.029,0.014,-0.026,-0.043,102.0,102.0,101.0,13.4,1505.2,324.1,-0.8,1.8,2470.58,13.28,0.029,151.7
2022-01-02T00:13:03,42.805,6.029,0.021,-0.041,-0.037,102.0,100.0,101.0,13.4,1505.2,324.6,-0.8,1.8,2470.607,13.28,0.046,152.9
2022-01-02T00:16:03,42.805,6.029,0.022,-0.047,-0.062,101.0,102.0,99.0,13.4,1505.2,324.0,-0.7,1.8,2470.644,13.28,0.051,154.9
2022-01-02T00:19:03,42.805,6.029,0.003,-0.051,-0.059,102.0,101.0,100.0,13.3,1505.2,325.9,-0.8,1.8,2470.606,13.28,0.051,176.6
2022-01-02T00:22:03,42.805,6.029,0.016,-0.041,-0.045,102.0,100.0,100.0,13.4,1505.2,331.0,-0.8,1.8,2470.584,13.28,0.044,158.7
2022-01-02T00:25:03,42.805,6.029,0.013,-0.054,-0.023,102.0,100.0,101.0,13.4,1505.2,325.0,-0.8,1.8,2470.629,13.28,0.055,166.5
2022-01-02T00:28:03,42.805,6.029,0.023,-0.059,-0.045,101.0,102.0,100.0,13.3,1505.2,324.7,-0.7,1.8,2470.638,13.28,0.063,158.7
2022-01-02T00:31:03,42.805,6.029,0.009,-0.031,-0.028,102.0,101.0,101.0,13.3,1505.2,330.8,-0.8,1.8,2470.592,13.28,0.032,163.8
2022-01-02T00:34:03,42.805,6.029,0.014,-0.047,-0.004,103.0,100.0,101.0,13.3,1505.2,328.7,-0.7,1.8,2470.613,13.28,0.049,163.4
2022-01-02T00:37:03,42.805,6.029,0.017,-0.044,-0.056,102.0,101.0,101.0,13.4,1505.2,328.9,-0.8,1.8,2470.616,13.28,0.047,158.9
2022-01-02T00:40:03,42.805,6.029,-0.018,-0.045,-0.025,101.0,102.0,101.0,13.4,1505.2,329.5,-0.8,1.8,2470.617,13.28,0.048,201.8
2022-01-02T00:43:03,42.805,6.029,0.004,-0.045,-0.036,103.0,101.0,102.0,13.4,1505.2,330.8,-0.7,1.8,2470.625,13.28,0.045,174.9
2022-01-02T00:46:03,42.805,6.029,0.005,-0.02,-0.034,102.0,101.0,100.0,13.4,1505.2,328.3,-0.8,1.8,2470.644,13.28,0.02,166.0
2022-01-02T00:49:03,42.805,6.029,0.0,-0.036,-0.043,102.0,101.0,101.0,13.4,1505.2,331.3,-0.7,1.8,2470.619,13.28,0.036,180.0
2022-01-02T00:52:03,42.805,6.029,0.001,-0.042,-0.027,101.0,102.0,101.0,13.3,1505.2,324.6,-0.7,1.8,2470.596,13.28,0.042,178.6
2022-01-02T00:55:03,42.805,6.029,0.017,-0.051,-0.043,103.0,100.0,101.0,13.3,1505.2,328.8,-0.8,1.8,2470.641,13.28,0.053,161.6
2022-01-02T00:58:03,42.805,6.029,0.019,-0.05,-0.022,101.0,100.0,101.0,13.3,1505.2,331.7,-0.7,1.8,2470.637,13.28,0.053,159.2
2022-01-02T01:04:03,42.805,6.029,0.042,-0.056,-0.052,104.0,103.0,103.0,13.4,1505.2,326.8,-0.7,1.8,2470.667,13.28,0.069,143.1
2022-01-02T01:07:03,42.805,6.029,-0.022,-0.042,-0.035,103.0,103.0,102.0,13.4,1505.2,327.4,-0.7,1.8,2470.595,13.28,0.047,207.6
2022-01-02T01:10:03,42.805,6.029,0.01,-0.042,-0.023,102.0,100.0,102.0,13.3,1505.2,328.8,-0.8,1.8,2470.616,13.28,0.043,166.6
2022-01-02T01:13:03,42.805,6.029,0.006,-0.042,-0.011,101.0,102.0,100.0,13.3,1505.2,327.0,-0.7,1.8,2470.628,13.28,0.042,171.9
2022-01-02T01:16:03,42.805,6.029,0.003,-0.029,-0.036,101.0,102.0,101.0,13.3,1505.2,328.8,-0.8,1.8,2470.625,13.28,0.029,174.1
2022-01-02T01:19:03,42.805,6.029,-0.014,-0.035,-0.038,103.0,101.0,101.0,13.4,1505.2,329.0,-0.8,1.8,2470.667,13.28,0.037,201.8
2022-01-02T01:22:03,42.805,6.029,-0.005,-0.058,-0.017,101.0,102.0,101.0,13.4,1505.2,328.2,-0.7,1.8,2470.609,13.28,0.058,184.9
2022-01-02T01:25:03,42.805,6.029,0.025,-0.023,-0.019,102.0,102.0,100.0,13.4,1505.2,324.7,-0.8,1.9,2470.595,13.28,0.033,132.6
2022-01-02T01:28:03,42.805,6.029,-0.015,-0.038,-0.032,102.0,101.0,100.0,13.3,1505.2,326.3,-0.8,1.8,2470.623,13.28,0.04,201.5
2022-01-02T01:31:03,42.805,6.029,0.013,-0.043,-0.016,103.0,101.0,100.0,13.4,1505.2,328.0,-0.8,1.8,2470.606,13.28,0.044,163.2
2022-01-02T01:34:03,42.805,6.029,-0.001,-0.047,-0.026,102.0,102.0,99.0,13.3,1505.2,327.0,-0.7,1.8,2470.637,13.28,0.047,181.2
2022-01-02T01:37:03,42.805,6.029,0.016,-0.051,-0.031,101.0,102.0,101.0,13.4,1505.2,331.8,-0.8,1.9,2470.645,13.28,0.053,162.6
2022-01-02T01:40:03,42.805,6.029,-0.018,-0.044,-0.035,103.0,102.0,100.0,13.4,1505.2,324.2,-0.7,1.8,2470.649,13.28,0.047,202.2
2022-01-02T01:43:03,42.805,6.029,-0.007,-0.034,-0.038,102.0,101.0,100.0,13.4,1505.2,325.9,-0.7,1.8,2470.671,13.28,0.034,191.6
2022-01-02T01:46:03,42.805,6.029,-0.018,-0.011,0.007,101.0,103.0,100.0,13.3,1505.2,330.8,-0.8,1.8,2470.616,13.28,0.021,238.6
2022-01-02T01:49:03,42.805,6.029,0.009,-0.036,-0.02,101.0,102.0,101.0,13.3,1505.2,327.8,-0.8,1.8,2470.606,13.28,0.037,166.0
2022-01-02T01:52:03,42.805,6.029,0.018,-0.034,-0.035,101.0,103.0,100.0,13.4,1505.2,329.4,-0.7,1.8,2470.604,13.28,0.038,152.1
2022-01-02T01:55:03,42.805,6.029,0.003,-0.036,-0.008,101.0,102.0,101.0,13.4,1505.2,325.9,-0.7,1.8,2470.631,13.28,0.036,175.2
2022-01-02T01:58:03,42.805,6.029,-0.018,-0.03,-0.024,101.0,102.0,101.0,13.4,1505.2,326.8,-0.7,1.8,2470.674,13.28,0.034,211.0
2022-01-02T02:04:03,42.805,6.029,-0.021,-0.019,0.007,103.0,102.0,100.0,13.4,1505.2,331.6,-0.7,1.8,2470.678,13.28,0.028,227.9
2022-01-02T02:07:03,42.805,6.029,0.001,-0.043,-0.006,101.0,103.0,102.0,13.3,1505.2,326.9,-0.7,1.9,2470.63,13.28,0.043,178.7
2022-01-02T02:10:03,42.805,6.029,-0.006,-0.029,-0.027,101.0,104.0,102.0,13.4,1505.2,329.8,-0.8,1.8,2470.669,13.28,0.029,191.7
2022-01-02T02:13:03,42.805,6.029,-0.002,-0.036,-0.025,102.0,102.0,100.0,13.4,1505.2,332.0,-0.7,1.8,2470.636,13.28,0.036,183.2
2022-01-02T02:16:03,42.805,6.029,-0.002,-0.037,-0.071,101.0,102.0,101.0,13.4,1505.2,331.8,-0.8,1.8,2470.672,13.28,0.037,183.1
2022-01-02T02:19:03,42.805,6.029,0.016,-0.056,-0.016,102.0,101.0,101.0,13.4,1505.2,326.7,-0.7,1.8,2470.676,13.28,0.058,164.1
2022-01-02T02:22:03,42.805,6.029,-0.019,-0.022,-0.024,101.0,101.0,101.0,13.3,1505.2,327.9,-0.7,1.8,2470.671,13.28,0.029,220.8
2022-01-02T02:25:03,42.805,6.029,-0.019,-0.018,-0.034,102.0,101.0,101.0,13.3,1505.2,327.0,-0.7,1.8,2470.672,13.28,0.026,226.5
2022-01-02T02:28:03,42.805,6.029,-0.013,-0.019,0.0,100.0,102.0,101.0,13.4,1505.2,330.0,-0.8,1.8,2470.692,13.28,0.023,214.4
2022-01-02T02:31:03,42.805,6.029,-0.03,-0.028,-0.065,102.0,101.0,101.0,13.4,1505.2,324.2,-0.8,1.8,2470.674,13.28,0.041,227.0
2022-01-02T02:34:03,42.805,6.029,-0.022,-0.009,-0.028,102.0,101.0,100.0,13.3,1505.2,329.6,-0.8,1.9,2470.637,13.28,0.023,247.8
2022-01-02T02:37:03,42.805,6.029,0.001,-0.042,-0.016,102.0,102.0,101.0,13.3,1505.2,326.5,-0.8,1.8,2470.657,13.28,0.042,178.6
2022-01-02T02:40:03,42.805,6.029,-0.009,-0.034,-0.018,103.0,101.0,100.0,13.4,1505.2,331.1,-0.7,1.8,2470.707,13.28,0.035,194.8
2022-01-02T02:43:03,42.805,6.029,0.013,-0.039,0.0,102.0,102.0,101.0,13.4,1505.2,324.2,-0.7,1.8,2470.724,13.28,0.041,161.6
2022-01-02T02:46:03,42.805,6.029,-0.011,-0.027,-0.037,102.0,101.0,101.0,13.3,1505.2,326.2,-0.7,1.9,2470.609,13.28,0.029,202.2
2022-01-02T02:49:03,42.805,6.029,0.01,0.002,-0.017,102.0,102.0,101.0,13.3,1505.2,329.9,-0.7,1.8,2470.64,13.28,0.01,78.7
2022-01-02T02:52:03,42.805,6.029,0.0,-0.016,-0.011,102.0,101.0,101.0,13.4,1505.2,327.3,-0.8,1.8,2470.679,13.28,0.016,180.0
2022-01-02T02:55:03,42.805,6.029,-0.029,-0.039,-0.022,101.0,101.0,101.0,13.4,1505.2,324.4,-0.7,1.8,2470.704,13.28,0.048,216.6
2022-01-02T02:58:03,42.805,6.029,-0.021,-0.016,-0.015,103.0,102.0,100.0,13.4,1505.2,325.7,-0.8,1.8,2470.672,13.28,0.026,232.7
2022-01-02T03:04:03,42.805,6.029,-0.011,-0.039,-0.037,102.0,102.0,101.0,13.4,1505.2,328.4,-0.8,1.8,2470.732,13.28,0.04,195.7
2022-01-02T03:07:03,42.805,6.029,-0.026,-0.035,-0.029,102.0,102.0,101.0,13.3,1505.2,328.1,-0.7,1.8,2470.703,13.28,0.043,216.6
2022-01-02T03:10:03,42.805,6.029,-0.02,-0.025,0.013,104.0,101.0,101.0,13.3,1505.2,326.5,-0.7,1.8,2470.691,13.28,0.032,218.7
2022-01-02T03:13:03,42.805,6.029,-0.012,-0.028,-0.05,102.0,101.0,101.0,13.4,1505.2,328.8,-0.7,1.8,2470.698,13.28,0.03,203.2
2022-01-02T03:16:03,42.805,6.029,-0.007,-0.034,-0.027,102.0,102.0,102.0,13.4,1505.2,331.6,-0.7,1.8,2470.733,13.28,0.034,191.6
2022-01-02T03:19:03,42.805,6.029,-0.002,-0.03,-0.071,101.0,102.0,101.0,13.3,1505.2,327.7,-0.7,1.8,2470.7,13.28,0.03,183.8
2022-01-02T03:22:03,42.805,6.029,-0.004,-0.018,-0.035,102.0,102.0,100.0,13.4,1505.2,328.1,-0.7,1.8,2470.739,13.28,0.018,192.5
2022-01-02T03:25:03,42.805,6.029,-0.029,-0.023,-0.027,101.0,101.0,102.0,13.4,1505.2,331.9,-0.8,1.8,2470.752,13.28,0.037,231.6
2022-01-02T03:28:03,42.805,6.029,0.012,-0.028,-0.007,102.0,102.0,102.0,13.3,1505.2,330.2,-0.8,1.8,2470.72,13.28,0.03,156.8
2022-01-02T03:31:03,42.805,6.029,0.003,-0.021,-0.001,102.0,102.0,101.0,13.4,1505.2,328.8,-0.7,1.8,2470.763,13.28,0.021,171.9
2022-01-02T03:34:03,42.805,6.029,-0.026,-0.011,-0.051,102.0,101.0,100.0,13.4,1505.2,329.9,-0.8,1.8,2470.747,13.28,0.028,247.1
2022-01-02T03:37:03,42.805,6.029,-0.03,-0.021,-0.012,102.0,103.0,101.0,13.3,1505.2,328.6,-0.7,1.8,2470.782,13.28,0.036,235.0
2022-01-02T03:40:03,42.805,6.029,0.008,-0.025,-0.004,101.0,102.0,101.0,13.4,1505.2,325.5,-0.8,1.8,2470.807,13.28,0.026,162.3
2022-01-02T03:43:03,42.805,6.029,-0.034,-0.014,-0.026,102.0,102.0,100.0,13.3,1505.2,326.5,-0.7,1.8,2470.809,13.28,0.036,247.6
2022-01-02T03:46:03,42.805,6.029,0.005,-0.016,0.02,102.0,102.0,101.0,13.4,1505.2,327.0,-0.8,1.8,2470.766,13.28,0.016,162.6
2022-01-02T03:49:03,42.805,6.029,-0.027,-0.017,-0.021,102.0,105.0,100.0,13.4,1505.2,324.3,-0.8,1.8,2470.787,13.28,0.031,237.8
2022-01-02T03:52:03,42.805,6.029,-0.025,-0.031,-0.046,101.0,102.0,101.0,13.4,1505.2,330.5,-0.8,1.8,2470.78,13.28,0.039,218.9
2022-01-02T03:55:03,42.805,6.029,-0.021,-0.003,-0.032,101.0,101.0,102.0,13.4,1505.2,328.4,-0.8,1.8,2470.823,13.28,0.021,261.9
2022-01-02T03:58:03,42.805,6.029,-0.007,-0.02,-0.014,102.0,102.0,101.0,13.4,1505.2,328.4,-0.8,1.8,2470.797,13.29,0.021,199.3
2022-01-02T04:04:03,42.805,6.029,-0.014,-0.011,-0.009,101.0,102.0,101.0,13.4,1505.2,324.4,-0.8,1.8,2470.849,13.28,0.017,231.8
2022-01-02T04:07:03,42.805,6.029,-0.011,-0.03,-0.037,102.0,101.0,100.0,13.4,1505.2,326.6,-0.8,1.8,2470.836,13.28,0.031,200.1
2022-01-02T04:10:03,42.805,6.029,-0.012,-0.043,-0.022,101.0,102.0,101.0,13.3,1505.2,331.5,-0.7,1.8,2470.821,13.28,0.044,195.6
2022-01-02T04:13:03,42.805,6.029,0.0,-0.017,-0.036,103.0,101.0,101.0,13.4,1505.2,324.6,-0.8,1.8,2470.821,13.28,0.017,180.0
2022-01-02T04:16:03,42.805,6.029,0.015,-0.02,-0.028,103.0,103.0,101.0,13.4,1505.2,329.0,-0.8,1.8,2470.843,13.28,0.025,143.1
2022-01-02T04:19:03,42.805,6.029,-0.025,-0.022,-0.028,102.0,101.0,101.0,13.4,1505.2,328.8,-0.7,1.8,2470.817,13.28,0.033,228.7
2022-01-02T04:22:03,42.805,6.029,-0.024,-0.009,-0.028,103.0,101.0,101.0,13.3,1505.2,329.8,-0.8,1.8,2470.813,13.28,0.025,249.4
2022-01-02T04:25:03,42.805,6.029,-0.004,-0.009,-0.021,102.0,101.0,101.0,13.4,1505.2,328.0,-0.8,1.8,2470.787,13.28,0.009,204.0
2022-01-02T04:28:03,42.805,6.029,0.003,-0.027,-0.023,103.0,101.0,101.0,13.4,1505.2,330.1,-0.8,1.8,2470.803,13.28,0.027,173.7
2022-01-02T04:31:03,42.805,6.029,-0.007,-0.015,-0.002,100.0,105.0,101.0,13.4,1505.2,327.0,-0.8,1.8,2470.838,13.28,0.016,205.0
2022-01-02T04:34:03,42.805,6.029,-0.006,-0.018,-0.026,102.0,103.0,101.0,13.4,1505.2,324.8,-0.7,1.8,2470.813,13.28,0.018,198.4
2022-01-02T04:37:03,42.805,6.029,-0.027,-0.034,-0.022,102.0,101.0,102.0,13.4,1505.2,328.1,-0.8,1.8,2470.829,13.28,0.043,218.5
2022-01-02T04:40:03,42.805,6.029,-0.015,-0.026,-0.06,100.0,101.0,102.0,13.3,1505.2,327.5,-0.8,1.8,2470.784,13.28,0.03,210.0
2022-01-02T04:43:03,42.805,6.029,-0.03,-0.018,-0.037,102.0,101.0,100.0,13.4,1505.2,331.8,-0.8,1.8,2470.782,13.28,0.034,239.0
2022-01-02T04:46:03,42.805,6.029,-0.021,-0.033,-0.023,103.0,102.0,100.0,13.4,1505.2,324.6,-0.7,1.8,2470.818,13.28,0.039,212.5
2022-01-02T04:49:03,42.805,6.029,-0.014,-0.024,-0.02,102.0,103.0,101.0,13.4,1505.2,326.9,-0.7,1.8,2470.853,13.28,0.027,210.3
2022-01-02T04:52:03,42.805,6.029,-0.028,-0.035,-0.022,102.0,101.0,103.0,13.3,1505.2,328.5,-0.8,1.8,2470.811,13.28,0.044,218.7
2022-01-02T04:55:03,42.805,6.029,0.015,-0.024,0.0,103.0,101.0,100.0,13.4,1505.2,326.2,-0.8,1.8,2470.836,13.28,0.028,148.0
2022-01-02T04:58:03,42.805,6.029,-0.022,-0.018,-0.007,103.0,101.0,101.0,13.3,1505.2,330.1,-0.7,1.8,2470.841,13.28,0.028,230.7
2022-01-02T05:04:03,42.805,6.029,-0.026,-0.032,-0.029,103.0,103.0,100.0,13.4,1505.2,326.7,-0.8,1.8,2470.864,13.28,0.041,219.1
2022-01-02T05:07:03,42.805,6.029,-0.006,-0.007,-0.019,101.0,102.0,103.0,13.4,1505.2,327.1,-0.7,1.8,2470.896,13.28,0.009,220.6
2022-01-02T05:10:03,42.805,6.029,-0.022,-0.011,-0.032,102.0,102.0,101.0,13.4,1505.2,326.3,-0.8,1.8,2470.867,13.28,0.024,243.4
2022-01-02T05:13:03,42.805,6.029,0.004,-0.017,0.01,101.0,102.0,101.0,13.4,1505.2,324.8,-0.8,1.8,2470.855,13.28,0.017,166.8
2022-01-02T05:16:03,42.805,6.029,0.0,-0.018,-0.011,102.0,102.0,101.0,13.3,1505.2,329.4,-0.7,1.8,2470.873,13.28,0.018,180.0
2022-01-02T05:19:03,42.805,6.029,-0.005,-0.006,-0.014,101.0,103.0,101.0,13.3,1505.2,328.9,-0.7,1.8,2470.875,13.28,0.007,219.8
2022-01-02T05:22:03,42.805,6.029,-0.002,-0.03,-0.02,102.0,102.0,101.0,13.4,1505.2,329.0,-0.7,1.8,2470.867,13.28,0.03,183.8
2022-01-02T05:25:03,42.805,6.029,0.023,-0.032,-0.017,102.0,101.0,101.0,13.4,1505.2,325.4,-0.8,1.8,2470.884,13.28,0.039,144.3
2022-01-02T05:28:03,42.805,6.029,-0.014,-0.038,0.011,102.0,102.0,101.0,13.4,1505.2,330.5,-0.8,1.8,2470.869,13.28,0.04,200.2
2022-01-02T05:31:03,42.805,6.029,-0.017,-0.034,-0.051,102.0,102.0,101.0,13.4,1505.2,327.0,-0.8,1.8,2470.857,13.28,0.038,206.6
2022-01-02T05:34:03,42.805,6.029,-0.012,-0.01,-0.007,102.0,102.0,101.0,13.4,1505.2,327.7,-0.8,1.8,2470.879,13.28,0.015,230.2
2022-01-02T05:37:03,42.805,6.029,-0.019,-0.04,-0.009,101.0,102.0,101.0,13.4,1505.2,326.5,-0.8,1.9,2470.867,13.28,0.044,205.4
2022-01-02T05:40:03,42.805,6.029,-0.007,-0.005,0.0,102.0,103.0,101.0,13.3,1505.2,326.2,-0.7,1.8,2470.884,13.28,0.008,234.5
2022-01-02T05:43:03,42.805,6.029,0.0,-0.005,0.015,102.0,102.0,101.0,13.4,1505.2,324.0,-0.7,1.8,2470.907,13.28,0.005,180.0
2022-01-02T05:46:03,42.805,6.029,-0.005,-0.002,-0.026,103.0,102.0,101.0,13.4,1505.2,329.5,-0.8,1.8,2470.856,13.28,0.005,248.2
2022-01-02T05:49:03,42.805,6.029,-0.006,-0.013,0.0,102.0,102.0,102.0,13.4,1505.2,330.3,-0.8,1.8,2470.889,13.28,0.014,204.8
2022-01-02T05:52:03,42.805,6.029,-0.006,-0.022,-0.033,102.0,101.0,101.0,13.4,1505.2,324.1,-0.8,1.8,2470.891,13.29,0.022,195.3
2022-01-02T05:55:03,42.805,6.029,-0.014,0.0,-0.011,103.0,102.0,102.0,13.3,1505.2,328.1,-0.7,1.8,2470.925,13.29,0.014,270.0
2022-01-02T05:58:03,42.805,6.029,0.009,-0.026,-0.007,101.0,102.0,102.0,13.4,1505.2,331.7,-0.8,1.8,2470.918,13.29,0.027,160.9
2022-01-02T06:04:03,42.805,6.029,-0.007,-0.024,-0.034,102.0,102.0,100.0,13.4,1505.2,329.3,-0.7,1.8,2470.904,13.28,0.025,196.3
2022-01-02T06:07:03,42.805,6.029,-0.005,-0.015,-0.027,102.0,102.0,101.0,13.4,1505.2,329.2,-0.8,1.8,2470.928,13.28,0.015,198.4
2022-01-02T06:10:03,42.805,6.029,0.007,0.0,-0.029,103.0,103.0,100.0,13.4,1505.2,330.1,-0.8,1.8,2470.917,13.28,0.007,90.0
2022-01-02T06:13:03,42.805,6.029,-0.004,-0.014,-0.029,102.0,102.0,101.0,13.4,1505.2,330.5,-0.8,1.8,2470.879,13.28,0.014,195.9
2022-01-02T06:16:03,42.805,6.029,0.0,-0.027,-0.013,102.0,102.0,101.0,13.4,1505.2,329.1,-0.7,1.8,2470.891,13.28,0.026,180.0
2022-01-02T06:19:03,42.805,6.029,-0.014,-0.013,-0.022,102.0,102.0,101.0,13.3,1505.2,331.9,-0.7,1.8,2470.893,13.28,0.019,227.1
2022-01-02T06:22:03,42.805,6.029,-0.01,-0.017,-0.041,105.0,103.0,102.0,13.4,1505.2,330.3,-0.8,1.8,2470.881,13.28,0.019,210.5
2022-01-02T06:25:03,42.805,6.029,-0.011,0.0,-0.011,101.0,102.0,102.0,13.4,1505.2,324.0,-0.8,1.8,2470.905,13.28,0.011,270.0
2022-01-02T06:28:03,42.805,6.029,0.006,-0.003,0.011,105.0,101.0,102.0,13.4,1505.2,327.6,-0.8,1.8,2470.906,13.29,0.006,116.6
2022-01-02T06:31:03,42.805,6.029,-0.022,0.0,-0.033,101.0,103.0,102.0,13.4,1505.2,329.1,-0.8,1.8,2470.921,13.29,0.022,270.0
2022-01-02T06:34:03,42.805,6.029,-0.01,-0.008,-0.022,103.0,102.0,102.0,13.3,1505.2,327.5,-0.7,1.8,2470.897,13.29,0.012,231.3
2022-01-02T06:37:03,42.805,6.029,-0.007,-0.011,-0.016,102.0,103.0,101.0,13.4,1505.2,324.2,-0.8,1.8,2470.938,13.29,0.013,212.5
2022-01-02T06:40:03,42.805,6.029,0.007,-0.006,-0.001,103.0,101.0,101.0,13.4,1505.2,328.5,-0.7,1.8,2470.909,13.29,0.009,130.6
2022-01-02T06:43:03,42.805,6.029,0.0,-0.037,-0.026,103.0,101.0,100.0,13.3,1505.2,331.6,-0.8,1.8,2470.913,13.28,0.037,180.0
2022-01-02T06:46:03,42.805,6.029,-0.013,-0.019,-0.021,104.0,101.0,102.0,13.4,1505.2,328.1,-0.8,1.8,2470.903,13.28,0.023,214.4
2022-01-02T06:49:03,42.805,6.029,-0.005,-0.009,-0.015,103.0,103.0,101.0,13.3,1505.2,328.5,-0.8,1.8,2470.904,13.29,0.01,209.1
2022-01-02T06:52:03,42.805,6.029,-0.006,-0.026,-0.032,102.0,102.0,102.0,13.4,1505.2,325.1,-0.8,1.8,2470.891,13.29,0.026,193.0
2022-01-02T06:55:03,42.805,6.029,-0.014,-0.019,0.001,102.0,102.0,102.0,13.3,1505.2,326.3,-0.7,1.8,2470.88,13.28,0.023,216.4
2022-01-02T06:58:03,42.805,6.029,-0.004,-0.004,-0.025,102.0,102.0,101.0,13.4,1505.2,327.9,-0.7,1.8,2470.897,13.29,0.005,225.0
2022-01-02T07:04:03,42.805,6.029,-0.023,-0.019,-0.038,103.0,102.0,102.0,13.3,1505.2,329.6,-0.8,1.8,2470.945,13.28,0.029,230.4
2022-01-02T07:07:03,42.805,6.029,0.0,-0.02,-0.035,104.0,102.0,101.0,13.3,1505.2,329.4,-0.7,1.8,2470.898,13.28,0.02,180.0
2022-01-02T07:10:03,42.805,6.029,0.0,-0.011,0.0,103.0,102.0,101.0,13.4,1505.2,326.0,-0.8,1.8,2470.893,13.28,0.011,180.0
2022-01-02T07:13:03,42.805,6.029,-0.012,-0.022,-0.019,103.0,102.0,102.0,13.4,1505.2,329.3,-0.8,1.8,2470.925,13.28,0.025,208.6
2022-01-02T07:16:03,42.805,6.029,0.005,-0.012,-0.006,102.0,103.0,101.0,13.4,1505.2,325.5,-0.7,1.8,2470.919,13.28,0.013,157.4
2022-01-02T07:19:03,42.805,6.029,0.008,-0.026,-0.026,103.0,102.0,101.0,13.4,1505.2,328.4,-0.7,1.9,2470.911,13.28,0.027,162.9
2022-01-02T07:22:03,42.805,6.029,0.021,-0.02,-0.006,102.0,102.0,102.0,13.3,1505.2,325.0,-0.8,1.8,2470.907,13.29,0.028,133.6
2022-01-02T07:25:03,42.805,6.029,0.002,-0.024,-0.002,101.0,102.0,102.0,13.4,1505.2,326.5,-0.7,1.8,2470.911,13.29,0.024,175.2
2022-01-02T07:28:03,42.805,6.029,0.002,-0.029,-0.033,102.0,101.0,102.0,13.3,1505.2,326.3,-0.7,1.8,2470.87,13.29,0.029,176.1
2022-01-02T07:31:03,42.805,6.029,0.004,-0.026,-0.023,103.0,102.0,102.0,13.4,1505.2,327.0,-0.7,1.8,2470.945,13.29,0.026,171.3
2022-01-02T07:34:03,42.805,6.029,0.0,-0.019,-0.016,104.0,102.0,101.0,13.4,1505.2,325.6,-0.8,1.8,2470.895,13.29,0.019,180.0
2022-01-02T07:37:03,42.805,6.029,-0.019,0.001,-0.007,102.0,103.0,103.0,13.4,1505.2,326.5,-0.8,1.8,2470.87,13.29,0.019,273.0
2022-01-02T07:40:03,42.805,6.029,0.001,-0.014,-0.014,103.0,101.0,101.0,13.4,1505.2,331.0,-0.7,1.8,2470.874,13.29,0.014,175.9
2022-01-02T07:43:03,42.805,6.029,-0.01,-0.026,-0.023,101.0,103.0,101.0,13.4,1505.2,325.8,-0.7,1.8,2470.871,13.29,0.027,201.0
2022-01-02T07:46:03,42.805,6.029,0.005,-0.015,0.007,103.0,102.0,101.0,13.4,1505.2,329.6,-0.8,1.8,2470.875,13.29,0.015,161.6
2022-01-02T07:49:03,42.805,6.029,-0.001,0.011,-0.01,103.0,100.0,102.0,13.4,1505.2,324.4,-0.8,1.8,2470.873,13.29,0.011,354.8
2022-01-02T07:52:03,42.805,6.029,-0.006,-0.02,0.004,103.0,101.0,102.0,13.3,1505.2,331.8,-0.7,1.8,2470.892,13.29,0.02,196.7
2022-01-02T07:55:03,42.805,6.029,0.01,-0.037,-0.051,103.0,101.0,101.0,13.4,1505.2,329.2,-0.8,1.8,2470.879,13.29,0.038,164.9
2022-01-02T07:58:03,42.805,6.029,-0.01,0.005,-0.013,103.0,101.0,100.0,13.4,1505.2,330.3,-0.8,1.8,2470.889,13.29,0.011,296.6
2022-01-02T08:04:03,42.805,6.029,0.011,-0.019,-0.035,102.0,102.0,101.0,13.3,1505.2,329.9,-0.7,1.8,2470.926,13.28,0.021,149.9
2022-01-02T08:07:03,42.805,6.029,0.017,-0.009,-0.014,103.0,102.0,101.0,13.4,1505.2,325.6,-0.8,1.8,2470.866,13.28,0.019,117.9
2022-01-02T08:10:03,42.805,6.029,0.008,-0.009,-0.016,102.0,102.0,102.0,13.4,1505.2,327.8,-0.8,1.8,2470.905,13.28,0.012,138.4
2022-01-02T08:13:03,42.805,6.029,-0.004,-0.027,-0.029,103.0,103.0,100.0,13.4,1505.2,329.5,-0.7,1.8,2470.87,13.28,0.027,188.4
2022-01-02T08:16:03,42.805,6.029,0.006,-0.015,-0.022,102.0,102.0,101.0,13.3,1505.2,330.6,-0.7,1.9,2470.889,13.28,0.016,158.2
2022-01-02T08:19:03,42.805,6.029,-0.014,-0.007,-0.032,103.0,103.0,101.0,13.3,1505.2,329.8,-0.8,1.8,2470.899,13.28,0.015,243.4
2022-01-02T08:22:03,42.805,6.029,-0.018,-0.017,-0.018,102.0,102.0,101.0,13.4,1505.2,326.0,-0.7,1.8,2470.875,13.28,0.024,226.6
2022-01-02T08:25:03,42.805,6.029,0.0,-0.018,-0.032,102.0,103.0,101.0,13.4,1505.2,325.1,-0.7,1.8,2470.888,13.29,0.018,180.0
2022-01-02T08:28:03,42.805,6.029,0.0,-0.02,-0.028,102.0,102.0,102.0,13.3,1505.2,330.8,-0.8,1.8,2470.908,13.28,0.02,180.0
2022-01-02T08:31:03,42.805,6.029,0.002,-0.025,-0.033,103.0,103.0,102.0,13.4,1505.2,328.8,-0.8,1.8,2470.891,13.29,0.025,175.4
2022-01-02T08:34:03,42.805,6.029,0.005,-0.036,-0.023,103.0,102.0,102.0,13.3,1505.2,329.4,-0.7,1.8,2470.873,13.28,0.036,172.1
2022-01-02T08:37:03,42.805,6.029,0.02,-0.016,-0.029,104.0,102.0,102.0,13.4,1505.2,327.1,-0.8,1.8,2470.865,13.29,0.025,128.7
2022-01-02T08:40:03,42.805,6.029,0.01,-0.006,-0.006,102.0,101.0,101.0,13.4,1505.2,330.7,-0.7,1.8,2470.845,13.28,0.011,121.0
2022-01-02T08:43:03,42.805,6.029,0.016,-0.017,-0.045,102.0,101.0,102.0,13.4,1505.2,328.4,-0.7,1.8,2470.874,13.29,0.023,136.7
2022-01-02T08:46:03,42.805,6.029,0.009,-0.03,-0.032,102.0,103.0,101.0,13.4,1505.2,330.7,-0.7,1.8,2470.869,13.28,0.031,163.3
2022-01-02T08:49:03,42.805,6.029,0.007,-0.008,0.013,103.0,102.0,101.0,13.3,1505.2,326.3,-0.7,1.8,2470.841,13.28,0.01,138.8
2022-01-02T08:52:03,42.805,6.029,0.0,-0.001,0.003,103.0,102.0,101.0,13.4,1505.2,330.3,-0.8,1.8,2470.862,13.28,0.001,180.0
2022-01-02T08:55:03,42.805,6.029,-0.004,-0.016,-0.01,102.0,103.0,101.0,13.4,1505.2,324.3,-0.8,1.8,2470.901,13.28,0.016,194.0
2022-01-02T08:58:03,42.805,6.029,0.0,0.0,-0.033,104.0,102.0,101.0,13.4,1505.2,327.9,-0.8,1.8,2470.855,13.28,0.0,0.0
2022-01-02T09:04:03,42.805,6.029,0.004,-0.019,-0.011,102.0,103.0,102.0,13.4,1505.2,324.9,-0.7,1.8,2470.885,13.28,0.019,168.1
2022-01-02T09:07:03,42.805,6.029,0.0,-0.005,-0.033,103.0,103.0,101.0,13.4,1505.2,324.0,-0.8,1.8,2470.855,13.28,0.005,180.0
2022-01-02T09:10:03,42.805,6.029,0.009,-0.007,0.005,102.0,102.0,101.0,13.4,1505.2,327.2,-0.8,1.8,2470.842,13.28,0.011,127.9
2022-01-02T09:13:03,42.805,6.029,0.014,-0.027,-0.012,102.0,103.0,102.0,13.4,1505.2,325.3,-0.8,1.8,2470.854,13.28,0.03,152.6
2022-01-02T09:16:03,42.805,6.029,0.026,-0.021,-0.033,104.0,102.0,101.0,13.3,1505.2,327.5,-0.8,1.8,2470.834,13.28,0.033,128.9
2022-01-02T09:19:03,42.805,6.029,0.027,-0.038,-0.016,104.0,102.0,101.0,13.4,1505.2,327.2,-0.8,1.8,2470.862,13.28,0.046,144.6
2022-01-02T09:22:03,42.805,6.029,0.015,-0.026,-0.015,102.0,104.0,101.0,13.4,1505.2,326.8,-0.7,1.8,2470.815,13.28,0.03,150.0
2022-01-02T09:25:03,42.805,6.029,-0.002,-0.027,-0.015,102.0,103.0,102.0,13.4,1505.2,329.2,-0.8,1.8,2470.889,13.28,0.027,184.2
2022-01-02T09:28:03,42.805,6.029,0.016,-0.016,-0.001,102.0,102.0,102.0,13.4,1505.2,329.2,-0.8,1.8,2470.884,13.28,0.022,135.0
2022-01-02T09:31:03,42.805,6.029,0.008,-0.018,-0.024,103.0,103.0,101.0,13.4,1505.2,324.2,-0.8,1.8,2470.9,13.28,0.019,156.0
2022-01-02T09:34:03,42.805,6.029,0.017,-0.026,-0.025,103.0,101.0,102.0,13.3,1505.2,327.2,-0.8,1.8,2470.873,13.28,0.031,146.8
2022-01-02T09:37:03,42.805,6.029,0.015,-0.035,-0.04,102.0,103.0,102.0,13.4,1505.2,325.6,-0.7,1.8,2470.839,13.28,0.038,156.8
2022-01-02T09:40:03,42.805,6.029,0.023,-0.031,-0.006,102.0,103.0,102.0,13.4,1505.2,326.8,-0.8,1.8,2470.875,13.28,0.038,143.4
2022-01-02T09:43:03,42.805,6.029,0.006,-0.033,-0.017,102.0,102.0,101.0,13.4,1505.2,330.6,-0.8,1.8,2470.856,13.28,0.033,169.7
2022-01-02T09:46:03,42.805,6.029,0.008,-0.033,0.0,103.0,102.0,101.0,13.4,1505.2,327.8,-0.8,1.8,2470.858,13.28,0.033,166.4
2022-01-02T09:49:03,42.805,6.029,0.0,-0.006,-0.006,103.0,102.0,100.0,13.4,1505.2,331.7,-0.8,1.8,2470.853,13.28,0.006,180.0
2022-01-02T09:52:03,42.805,6.029,0.014,-0.007,-0.013,103.0,101.0,102.0,13.3,1505.2,326.8,-0.8,1.8,2470.843,13.28,0.015,116.6